Grayling, MI

9:57 AM EST on December 15, 2017 (GMT -0500)
Grayling

Weather History for KGOV - November, 2013

Change the Weather History Date:

Monday, November 4, 2013

  Actual Average (KHTL) Record (KHTL)
Temperature  
Mean Temperature 40 °F -  
Max Temperature 48 °F 45 °F 72 °F (2015)
Min Temperature 31 °F 31 °F 9 °F (1951)
Degree Days  
Heating Degree Days 26    
Moisture  
Dew Point 27 °F    
Average Humidity 65    
Maximum Humidity 98    
Minimum Humidity 33    
Precipitation  
Precipitation 0.00 in - - ()
Sea Level Pressure  
Sea Level Pressure 30.31 in    
Wind  
Wind Speed 10 mph (SE)    
Max Wind Speed 21 mph    
Max Gust Speed 30 mph    
Visibility 10 miles    
Events      
Averages and records for this station are not official NWS values.
T = Trace of Precipitation, MM = Missing Value Source: NWS Daily Summary

Daily Weather History Graph

Daily Weather History Graph

Search for Another Location

Airport or City:

Trip Planner

Search our weather history database for the weather conditions in past years. The results will help you decide how hot, cold, wet, or windy it might be!

Date:

Astronomy

Nov. 04, 2013 Rise Set
Actual Time 7:21 AM EST 5:23 PM EST
Civil Twilight 6:50 AM EST 5:53 PM EST
Nautical Twilight 6:15 AM EST 6:28 PM EST
Astronomical Twilight 5:41 AM EST 7:02 PM EST
Moon 8:33 AM EST (11/4) 6:24 PM EST (11/4)
Length of Visible Light 11h 03m
Length of Day
10h 02m
New Moon, 2% of the Moon is Illuminated
Nov 4
New Moon
Nov 10
First Quarter
Nov 17
Full
Nov 25
Last Quarter
Dec 2
New

Hourly Weather History & Observations

Time (EST) Temp. Windchill Dew Point Humidity Pressure Visibility Wind Dir Wind Speed Gust Speed Precip Events Conditions
12:15 AM 31.1 °F 23.7 °F 30.6 °F 98% 30.40 in 10.0 mi ESE 8.1 mph - N/A   Clear
12:35 AM 33.3 °F 27.1 °F 32.2 °F 96% 30.41 in 10.0 mi ESE 6.9 mph - N/A   Clear
12:54 AM 33.3 °F 27.1 °F 32.0 °F 95% 30.40 in 10.0 mi SE 6.9 mph - N/A   Clear
1:15 AM 33.3 °F 27.1 °F 31.6 °F 94% 30.40 in 10.0 mi SE 6.9 mph - N/A   Clear
1:34 AM 33.3 °F 26.4 °F 31.5 °F 93% 30.39 in 10.0 mi SE 8.1 mph - N/A   Clear
1:55 AM 33.3 °F 25.7 °F 30.9 °F 91% 30.39 in 10.0 mi SE 9.2 mph - N/A   Clear
2:14 AM 33.3 °F 25.7 °F 30.9 °F 91% 30.39 in 10.0 mi SE 9.2 mph - N/A   Clear
2:35 AM 33.3 °F 26.4 °F 30.9 °F 91% 30.40 in 10.0 mi SE 8.1 mph - N/A   Clear
2:55 AM 33.3 °F 27.1 °F 31.1 °F 92% 30.40 in 10.0 mi SE 6.9 mph - N/A   Clear
3:14 AM 33.3 °F 27.1 °F 31.5 °F 93% 30.39 in 10.0 mi SE 6.9 mph - N/A   Clear
3:35 AM 33.3 °F 26.4 °F 30.7 °F 90% 30.40 in 10.0 mi SSE 8.1 mph - N/A   Clear
3:54 AM 33.3 °F 27.9 °F 29.7 °F 87% 30.41 in 10.0 mi SSE 5.8 mph - N/A   Clear
4:15 AM 33.3 °F 25.7 °F 29.3 °F 85% 30.39 in 10.0 mi SE 9.2 mph - N/A   Clear
4:35 AM 33.3 °F 25.7 °F 29.3 °F 85% 30.40 in 10.0 mi SE 9.2 mph - N/A   Clear
4:54 AM 33.3 °F 26.4 °F 29.1 °F 85% 30.40 in 10.0 mi SE 8.1 mph - N/A   Clear
5:15 AM 33.3 °F 27.9 °F 29.3 °F 85% 30.40 in 10.0 mi SE 5.8 mph - N/A   Clear
5:34 AM 33.3 °F 27.1 °F 29.3 °F 85% 30.40 in 10.0 mi SE 6.9 mph - N/A   Clear
5:55 AM 33.3 °F 27.1 °F 28.9 °F 84% 30.40 in 10.0 mi SE 6.9 mph - N/A   Clear
6:15 AM 33.3 °F 25.7 °F 28.4 °F 82% 30.40 in 10.0 mi SE 9.2 mph - N/A   Clear
6:34 AM 33.3 °F 25.1 °F 28.9 °F 84% 30.40 in 10.0 mi SE 10.4 mph - N/A   Clear
6:55 AM 33.3 °F 25.7 °F 29.3 °F 85% 30.40 in 10.0 mi SE 9.2 mph - N/A   Scattered Clouds
7:15 AM 33.3 °F 26.4 °F 29.7 °F 87% 30.40 in 10.0 mi SE 8.1 mph 17.3 mph N/A   Scattered Clouds
7:34 AM 33.3 °F 25.7 °F 29.8 °F 87% 30.39 in 10.0 mi SE 9.2 mph - N/A   Scattered Clouds
7:55 AM 33.4 °F 25.9 °F 30.0 °F 87% 30.40 in 10.0 mi SE 9.2 mph - N/A   Scattered Clouds
8:14 AM 35.6 °F 27.1 °F 31.3 °F 84% 30.40 in 10.0 mi SE 12.7 mph 17.3 mph N/A   Clear
8:34 AM 35.8 °F 27.8 °F 30.9 °F 82% 30.40 in 10.0 mi SE 11.5 mph 17.3 mph N/A   Clear
8:55 AM 35.8 °F 27.8 °F 30.4 °F 81% 30.39 in 10.0 mi SE 11.5 mph - N/A   Clear
9:15 AM 36.5 °F 28.7 °F 30.9 °F 80% 30.38 in 10.0 mi SE 11.5 mph 17.3 mph N/A   Clear
9:34 AM 38.3 °F 30.5 °F 31.3 °F 76% 30.38 in 10.0 mi SSE 12.7 mph 20.7 mph N/A   Clear
9:55 AM 38.3 °F 30.5 °F 30.0 °F 72% 30.38 in 10.0 mi SSE 12.7 mph - N/A   Clear
10:15 AM 38.3 °F 29.3 °F 29.1 °F 70% 30.37 in 10.0 mi SE 16.1 mph 19.6 mph N/A   Clear
10:34 AM 39.7 °F 32.7 °F 28.9 °F 65% 30.36 in 10.0 mi SE 11.5 mph 16.1 mph N/A   Clear
10:55 AM 40.5 °F 34.6 °F 27.9 °F 61% 30.36 in 10.0 mi SSE 9.2 mph 23.0 mph N/A   Clear
11:15 AM 41.0 °F 33.9 °F 28.0 °F 60% 30.35 in 10.0 mi SE 12.7 mph 18.4 mph N/A   Clear
11:34 AM 42.6 °F 35.2 °F 28.0 °F 56% 30.34 in 10.0 mi SSE 15.0 mph - N/A   Clear
11:55 AM 43.2 °F 36.2 °F 26.2 °F 51% 30.33 in 10.0 mi SSE 13.8 mph 23.0 mph N/A   Clear
12:15 PM 45.7 °F 39.1 °F 26.4 °F 47% 30.32 in 10.0 mi SSE 15.0 mph 23.0 mph N/A   Clear
12:34 PM 48.4 °F - 24.8 °F 40% 30.31 in 10.0 mi SSE 17.3 mph 26.5 mph N/A   Clear
12:55 PM 48.4 °F - 23.5 °F 38% 30.30 in 10.0 mi SSE 13.8 mph 20.7 mph N/A   Clear
1:15 PM 48.4 °F - 23.4 °F 37% 30.29 in 10.0 mi SSE 15.0 mph 21.9 mph N/A   Clear
1:34 PM 48.4 °F - 21.9 °F 35% 30.28 in 10.0 mi SSE 10.4 mph 24.2 mph N/A   Clear
1:55 PM 48.4 °F - 22.1 °F 36% 30.27 in 10.0 mi SSE 15.0 mph 24.2 mph N/A   Clear
2:15 PM 48.4 °F - 22.8 °F 37% 30.26 in 10.0 mi SSE 13.8 mph 24.2 mph N/A   Clear
2:35 PM 48.4 °F - 21.9 °F 35% 30.26 in 10.0 mi SE 16.1 mph 25.3 mph N/A   Clear
2:55 PM 48.4 °F - 21.2 °F 34% 30.25 in 10.0 mi SSE 9.2 mph 20.7 mph N/A   Clear
3:14 PM 48.4 °F - 20.5 °F 33% 30.25 in 10.0 mi SSE 16.1 mph 21.9 mph N/A   Clear
3:35 PM 48.4 °F - 20.7 °F 33% 30.24 in 10.0 mi SSE 20.7 mph 29.9 mph N/A   Scattered Clouds
3:55 PM 48.4 °F - 21.9 °F 35% 30.24 in 10.0 mi SE 16.1 mph 19.6 mph N/A   Clear
4:14 PM 47.5 °F - 22.1 °F 37% 30.23 in 10.0 mi SE 13.8 mph 20.7 mph N/A   Clear
4:35 PM 45.9 °F 39.7 °F 22.1 °F 39% 30.23 in 10.0 mi SE 13.8 mph 23.0 mph N/A   Clear
4:54 PM 45.3 °F 39.7 °F 24.8 °F 45% 30.23 in 10.0 mi SE 11.5 mph 20.7 mph N/A   Clear
5:15 PM 43.3 °F 36.5 °F 25.3 °F 49% 30.23 in 10.0 mi SE 13.8 mph 23.0 mph N/A   Clear
5:35 PM 42.1 °F 34.5 °F 25.7 °F 52% 30.21 in 10.0 mi SE 15.0 mph 24.2 mph N/A   Clear
5:54 PM 42.1 °F 34.9 °F 25.7 °F 52% 30.22 in 10.0 mi SE 13.8 mph 19.6 mph N/A   Clear
6:15 PM 42.1 °F 34.2 °F 24.8 °F 50% 30.22 in 10.0 mi SE 16.1 mph 21.9 mph N/A   Clear
6:35 PM 41.9 °F 35.4 °F 23.7 °F 49% 30.22 in 10.0 mi SE 11.5 mph 20.7 mph N/A   Clear
6:54 PM 41.5 °F 35.0 °F 23.5 °F 49% 30.21 in 10.0 mi SE 11.5 mph 21.9 mph N/A   Clear
7:15 PM 41.5 °F 35.0 °F 23.9 °F 50% 30.21 in 10.0 mi SE 11.5 mph 18.4 mph N/A   Clear
7:35 PM 41.2 °F 34.1 °F 23.5 °F 50% 30.21 in 10.0 mi SE 12.7 mph - N/A   Mostly Cloudy
7:54 PM 41.4 °F 34.3 °F 23.5 °F 49% 30.21 in 10.0 mi SSE 12.7 mph 19.6 mph N/A   Overcast
8:15 PM 41.4 °F 35.2 °F 24.1 °F 50% 30.21 in 10.0 mi SSE 10.4 mph 17.3 mph N/A   Overcast
8:35 PM 41.2 °F 35.5 °F 24.4 °F 51% 30.21 in 10.0 mi SSE 9.2 mph 19.6 mph N/A   Overcast
8:54 PM 41.5 °F 34.6 °F 25.5 °F 53% 30.21 in 10.0 mi SSE 12.7 mph 18.4 mph N/A   Overcast
9:15 PM 41.5 °F 35.9 °F 26.2 °F 55% 30.21 in 10.0 mi SSE 9.2 mph 17.3 mph N/A   Overcast
9:35 PM 41.5 °F 35.9 °F 26.6 °F 55% 30.21 in 10.0 mi SSE 9.2 mph 18.4 mph N/A   Overcast
9:54 PM 41.5 °F 35.9 °F 27.1 °F 57% 30.21 in 10.0 mi SSE 9.2 mph 20.7 mph N/A   Overcast
10:15 PM 41.7 °F 36.7 °F 27.9 °F 58% 30.22 in 10.0 mi SSE 8.1 mph 17.3 mph N/A   Overcast
10:34 PM 41.7 °F 34.8 °F 28.4 °F 59% 30.21 in 10.0 mi SSE 12.7 mph 18.4 mph N/A   Mostly Cloudy
10:55 PM 41.5 °F 35.9 °F 28.4 °F 60% 30.21 in 10.0 mi SSE 9.2 mph 17.3 mph N/A   Overcast
11:15 PM 42.1 °F 37.1 °F 29.1 °F 60% 30.20 in 10.0 mi SSE 8.1 mph - N/A   Overcast
11:34 PM 42.1 °F 37.1 °F 29.3 °F 61% 30.20 in 10.0 mi South 8.1 mph - N/A   Overcast
11:55 PM 41.5 °F 37.8 °F 29.7 °F 63% 30.20 in 10.0 mi SSE 5.8 mph - N/A   Overcast